Flag Weather past 2 weeks in Bryne, Norway

Now
46 °F

Cool.


Feels Like: 43 °F
Forecast: 44 / 49 °F
Wind: 6 mph from East

Location: Obrestad

Current Time: Oct 30, 2014 at 7:59:06 PM

Latest Report: Oct 30, 2014 at 7:00 PM


Visibility: N/A

Pressure: 30.15 "Hg

Humidity: 85%

Dew point: 41 °F

Location of BryneLocation

Historic Weather in Bryne — Graph

°F

Bryne temperature yesterday

Maximum temperature yesterday: 50 °F (at 3:00 PM)
Minimum temperature yesterday: 42 °F (at 10:00 PM)
Average temperature yesterday: 49 °F

Past Weeks' High & Low Weather Summary

 TemperatureHumidityPressure
High57 °F (Oct 18, 3:00 PM)97% (Oct 18, 5:00 PM)30.20 "Hg (Oct 18, 5:00 PM)
Low33 °F (Oct 17, 8:00 AM)51% (Oct 16, 3:00 PM)29.12 "Hg (Oct 21, 5:00 PM)
Average51 °F85%29.74 "Hg
* Reported Oct 15 7:00 PM — Oct 30 6:00 PM, Bryne, Weather by CustomWeather, © 2014

Note: Actual official high and low records may vary slightly from our data, if they occured in-between our weather recording intervals... More about our weather records

Advertising

Bryne weather history for previous 24 hours

 ConditionsComfort  
Time TempWeatherWind HumidityBarometerVisibility
6:00 PM
Oct 30
46 °FCool.5 mph84%30.16 "HgN/A
5:00 PM47 °FCool.5 mph82%30.16 "HgN/A
4:00 PM47 °FCool.5 mph79%30.16 "HgN/A
3:00 PM48 °FCool.5 mph80%30.18 "HgN/A
2:00 PM48 °FCool.6 mph80%30.18 "HgN/A
1:00 PM48 °FCool.6 mph80%30.20 "HgN/A
12:00 PM49 °FCool.7 mph74%30.20 "HgN/A
11:00 AM48 °FCool.6 mph74%30.19 "HgN/A
10:00 AM47 °FCool.5 mph77%30.20 "HgN/A
9:00 AM46 °FCool.5 mph78%30.19 "HgN/A
8:00 AM42 °FQuite cool.3 mph88%30.18 "HgN/A
7:00 AM41 °FQuite cool.3 mph90%30.18 "HgN/A
6:00 AM40 °FQuite cool.3 mph92%30.18 "HgN/A
5:00 AM40 °FQuite cool.3 mph86%30.16 "HgN/A
4:00 AM40 °FChilly.3 mph89%30.17 "HgN/A
3:00 AM38 °FChilly.2 mph86%30.17 "HgN/A
2:00 AM36 °FChilly.2 mph89%30.16 "HgN/A
1:00 AM39 °FChilly.2 mph85%30.16 "HgN/A
12:00 AM44 °FQuite cool.3 mph80%30.15 "HgN/A
11:00 PM
Oct 29
43 °FQuite cool.3 mph80%30.14 "HgN/A
10:00 PM42 °FQuite cool.3 mph82%30.12 "HgN/A
9:00 PM44 °FQuite cool.3 mph79%30.11 "HgN/A
8:00 PM49 °FCool.7 mph64%30.09 "HgN/A
7:00 PM49 °FCool.7 mph68%30.07 "HgN/A
Weather by CustomWeather, © 2014

See weather overviewHow to use our weather pages